Location: Anuling
(14.1239°N, 120.8922°E)
Time: 05:16:50
(UTC+00:00)

Cosmos 2218 Rocket - Pass Details

Date: 14 January 2026
Orbit: 955 x 1005 km, 82.9° (Epoch: 10 February)

Event Time Altitude Azimuth Distance (km) Brightness Sun altitude
Rises 10:02:41 0° 1° (N) 3,721 6.8 -4.4°
Reaches altitude 10° 10:05:15 10° 4° (N) 2,768 6.1 -5.0°
Maximum altitude 10:11:34 66° 86° (E) 1,078 4.1 -6.5°
Drops below altitude 10° 10:17:48 10° 167° (SSE) 2,740 6.5 -7.9°
Sets 10:20:19 0° 170° (S) 3,681 7.2 -8.5°
